Location: Amsterdam
(30.7274°N, 84.4357°W)
Time: 08:37:59
(UTC+00:00)

Transit 2A Rocket - Pass Details

Date: 09 February 2026
Orbit: 583 x 900 km, 66.7° (Epoch: 7 March)

Event Time Altitude Azimuth Distance (km) Brightness Sun altitude
Rises 23:39:11 0° 222° (SW) 3,408 9.4 -4.6°
Reaches altitude 10° 23:41:43 10° 228° (SW) 2,508 8.8 -5.2°
Maximum altitude 23:47:17 44° 300° (WNW) 1,220 6.5 -6.3°
Drops below altitude 10° 23:53:02 10° 11° (N) 2,577 7.5 -7.5°
Sets 23:55:41 0° 18° (NNE) 3,512 8.1 -8.1°
